Volver al catálogo

FENGYUN 1C DEB

ActivoLEO
NORAD 31880·DEBRIS·🇨🇳 China

Lanzado May 10, 1999 desde Taiyuan Satellite Launch Center

Loading…

Próximos Pases (próximas 24 horas)

TLE

ActualizadoSource: Space-Track

Época: Sep 14, 2026, 07:33 UTC

1 31880U 99025CKF 26257.31495150  .00000609  00000-0  50239-3 0  9992
2 31880 100.0441  86.5755 0127244 148.0187 212.8771 13.89844199668078

Sigue FENGYUN 1C DEB en tiempo real con AllMySat

Download on the App Store